Regional Weather Roundup
Issued by NWS

Home | Current Version | Previous Version | Graphics & Text | Print | Product List | Glossary On
Versions: 1 2 3 4 5 6 7 8 9 10 11 12 13 14 15 16 17 18 19 20 21 22 23 24 25 26 27 28 29 30 31 32 33 34 35 36 37 38 39 40 41 42 43 44 45 46 47 48 49 50
000
ASUS43 KFSD 022010
RWRSD

WEATHER ROUNDUP FOR SOUTH DAKOTA
NATIONAL WEATHER SERVICE SIOUX FALLS SD
300 PM CDT TUE JUN 02 2015

NOTE: "FAIR" INDICATES FEW OR NO CLOUDS BELOW 12,000 FEET WITH NO
SIGNIFICANT WEATHER AND/OR OBSTRUCTIONS TO VISIBILITY.


SDZ001>005-009-010-012>017-022100-
NORTHWEST AND NORTH CENTRAL SOUTH DAKOTA

CITY           SKY/WX    TMP DP  RH WIND       PRES   REMARKS
BUFFALO          N/A     76  56  49 W21G26    29.77S
FAITH            N/A     81  57  43 W14       29.77S
MOBRIDGE       SUNNY     85  61  44 S8        29.68F
$$

SDZ012>016-024>037-041>051-057-063-072>074-022100-
SOUTHWEST AND SOUTH CENTRAL SOUTH DAKOTA

CITY           SKY/WX    TMP DP  RH WIND       PRES   REMARKS
RAPID CTY ARPT SUNNY     80  61  52 NE15      29.82F
PIERRE         SUNNY     87  60  40 SW13      29.70F
CUSTER         SUNNY     80  35  19 W12       29.95F
ELLSWORTH AFB  SUNNY     79  60  52 N17       29.82F
PHILIP         SUNNY     86  58  38 N10       29.75F
PINE RIDGE     PTSUNNY   83  58  42 VRB5      29.83F
SPEARFISH      FAIR      75  59  57 NW13      29.88S
WINNER         FAIR      92  59  33 S18       29.76F
$$

SDZ004>011-016>023-039-040-022100-
NORTHEAST SOUTH DAKOTA

CITY           SKY/WX    TMP DP  RH WIND       PRES   REMARKS
ABERDEEN       SUNNY     82  63  52 S23       29.73F
WATERTOWN      MOSUNNY   78  61  55 S29G36    29.80F
BROOKINGS      MOSUNNY   77  63  61 S26G33    29.86F
SISSETON         N/A     82  61  48 S26G37    29.76F
$$

SDZ017-020-022-023-036>040-048>070-022100-
SOUTHEAST SOUTH DAKOTA

CITY           SKY/WX    TMP DP  RH WIND       PRES   REMARKS
SIOUX FALLS    PTSUNNY   77  62  59 S18G26    29.87F
HURON          SUNNY     83  60  45 S21G31    29.75F
CHAMBERLAIN    SUNNY     83  65  54 S17G23    29.75F
MITCHELL       MOSUNNY   83  61  47 S17G24    29.79F
YANKTON        MOSUNNY   79  61  53 S16G25    29.84F
$$

ABBREVIATIONS USED IN REMARKS
   TC - TEMPERATURE IN CELSIUS
  WCI - WIND CHILL INDEX
   HX - HEAT INDEX
  VSB - VISIBILITY



USA.gov is the U.S. government's official web portal to all federal, state and local government web resources and services.